Location: Beutels
(47.8767°N, 9.8584°E)
Time: 23:30:10
(UTC+00:00)

USA 234 - Pass Details

Date: 19 May 2025
Orbit: 1097 x 1111 km, 123.0° (Epoch: 13 June)

Event Time Altitude Azimuth Distance (km) Brightness Sun altitude
Rises 22:30:45 0° 61° (ENE) 3,921 6.4 -21.4°
Reaches altitude 10° 22:33:19 10° 56° (NE) 2,964 5.8 -21.4°
Maximum altitude 22:39:28 46° 346° (NNW) 1,445 4.3 -21.6°
Drops below altitude 10° 22:45:39 10° 275° (W) 2,969 5.7 -21.8°
Sets 22:48:14 0° 270° (W) 3,928 6.3 -21.8°
